Location: Asheville, NC
(35.6000°N, 82.5500°W)
Time: 03:03:07
(UTC-04:00)

Vanguard 2 - Pass Details

Date: 10 December 2017
Orbit: 553 x 2939 km, 32.9° (Epoch: 21 April)

Event Time Altitude Azimuth Distance (km) Brightness Sun altitude
Rises 21:37:32 0° 270° (W) 2,711 - -52.0°
Reaches altitude 10° 21:39:54 10° 256° (WSW) 1,838 - -52.5°
Maximum altitude 21:43:16 26° 198° (SSW) 1,223 - -53.2°
Drops below altitude 10° 21:47:19 10° 142° (SE) 2,232 - -54.0°
Sets 21:50:32 0° 131° (SE) 3,453 - -54.6°
